Tracking 19570 objects as of 21-Feb-2019
HD Live streaming from Space Station
objects crossing your sky now

COSMOS 2222

Track COSMOS 2222 now!
COSMOS 2222 is classified as:


NORAD ID: 22238
Int'l Code: 1992-081A
Perigee: 877.5 km
Apogee: 39,489.0 km
Inclination: 63.2 °
Period: 717.7 minutes
Semi major axis: 26554 km
RCS: 13.6381 m2 (large)
Launch date: November 25, 1992
Source: Commonwealth of Independent States (former USSR) (CIS)
Launch site: PLESETSK MISSILE AND SPACE COMPLEX (PKMTR)
aabbcc
Your satellite tracking list
Your tracking list is empty




NASA's NSSDC Master Catalog

Two Line Element Set (TLE):
1 22238U 92081A   19052.14516312 -.00001294  00000-0 -50437-2 0  9996
2 22238  63.2186 107.9871 7270312 198.5545 106.1872  2.00632973192231
Source of the keplerian elements: AFSPC